Погода в Оспиталет-де-Льобрегате

Испания     41°21′45″N   2°06′19″E
темп.,
°C
ветер,
м/с
пор.,
м/с
влажн.,
%
обл.,
%
осадки,
мм/ч
давл.,
гПа
погр.,
м
4 марта, чт
чт401:00+12всв128875 0.0 1028124
04:00+12всв118938 0.0 102691
07:00+11св118921 0.0 1025114
10:00+12вюв11830 0.0 1024299
13:00+13ююв23782 0.0 1023421
16:00+13ю22721 0.0 1020367
19:00+12ю23771 0.0 1019305
22:00+12ююз22830 0.0 1020186
5 марта, пт
пт501:00+12зсз11820 0.0 1019120
04:00+12сз11790 0.0 1018111
07:00+11сз11730 0.0 101892
10:00+12юз11670 0.0 1018201
13:00+13ююз22680 0.0 1018325
16:00+13ю22680 0.0 1017290
19:00+12вюв11700 0.0 1018150
22:00+13св11730 0.0 102049
6 марта, сб
сб601:00+13зсз11740 0.0 102127
04:00+12с11780 0.0 102122
07:00+12в227716 0.0 1021104
10:00+13в348062 0.0 1023438
13:00+13вюв447255 0.0 1023481
16:00+12вюв337217 0.0 1022478
19:00+12вюв227432 0.0 1022338
22:00+12всв33760 0.0 1023297
7 марта, вс
вс701:00+12св11750 0.0 1024133
04:00+12с227453 0.0 1022155
07:00+11с227438 0.0 1022144
10:00+12ссв22670 0.0 1022278
13:00+13ююв21620 0.0 1021423
16:00+13ююв33680 0.0 1019376
19:00+12в45800 0.0 1019498
22:00+13в457538 0.0 1019489
8 марта, пн
пн801:00+12в127832 0.0 1019274
04:00+12юз127749 0.1 1018331
07:00+11з128045 1.1 1019168
10:00+12ююв127562 2.6 1020454
13:00+11вюв337274 3.4 1020538
16:00+12ю336624 0.0 1018608
19:00+12ююв446627 0.0 1019842
22:00+12юв346683 0.1 1021797